Regional Weather Roundup
Issued by NWS Northern Indiana

Home | Current Version | Previous Version | Text Only | Print | Product List | Glossary On
Versions: 1 2 3 4 5 6 7 8 9 10 11 12 13 14 15 16 17 18 19 20 21 22 23 24 25 26 27 28 29 30 31 32 33 34 35 36 37 38 39 40 41 42 43 44 45 46 47 48 49 50
000
ASUS43 KIWX 250210
RWRIWX

KIWX WEATHER ROUNDUP
NATIONAL WEATHER SERVICE NORTHERN INDIANA
900 PM EST TUE JAN 24 2017

NOTE: "FAIR" INDICATES FEW OR NO CLOUDS BELOW 12,000 FEET WITH NO
SIGNIFICANT WEATHER AND/OR OBSTRUCTIONS TO VISIBILITY.

* THESE STATIONS ARE NOT UNDER NWS QUALITY CONTROL. THEY ALSO MAY NOT
  REPORT WEATHER SUCH AS PRECIPITATION OR FOG.

INZ001>027-250300-
NORTHERN INDIANA

CITY           SKY/WX    TMP DP  RH WIND       PRES   REMARKS
GARY*          CLOUDY    37  32  81 E9        29.79F
VALPARAISO     CLOUDY    36  33  89 E8        29.81S FOG
LAPORTE*       CLOUDY    35  32  90 E3        29.83R
KNOX*          CLOUDY    36  21  55 E7        29.80F
SOUTH BEND     CLOUDY    35  32  88 CALM      29.83S
ELKHART*       CLOUDY    36  32  87 CALM      29.83S
GOSHEN         CLOUDY    37  32  82 SE3       29.81F
ROCHESTER*     CLOUDY    37  36  93 E6        29.81F
WARSAW*        CLOUDY    34  30  86 E5        29.81F WCI  30
FORT WAYNE     CLOUDY    38  32  79 CALM      29.84S
PERU/GRISSOM   CLOUDY    38  37  95 SE3       29.80S
MARION*        CLOUDY    37  34  87 SE3       29.82S

$$
INZ028>050-250300-
CENTRAL INDIANA

CITY           SKY/WX    TMP DP  RH WIND       PRES   REMARKS
LAFAYETTE      PTCLDY    37  34  89 E9        29.78F
KOKOMO*        CLOUDY    38  35  89 SE6       29.82S
MUNCIE*        CLOUDY    40  34  79 SE6       29.82F
INDIANAPOLIS   CLOUDY    40  33  76 SE6       29.82R

$$
MIZ043>046-050>051-056>058-064>065-071>073-077>080-250300-
SOUTHWEST LOWER MICHIGAN

CITY           SKY/WX    TMP DP  RH WIND       PRES   REMARKS
BATTLE CREEK   CLOUDY    37  33  85 W3        29.82R
BENTON HARBOR  CLOUDY    38  32  79 CALM      29.83R
COLDWATER*     CLOUDY    37  36  96 W5        29.81S
HILLSDALE*     CLOUDY    36  32  87 W5        29.79S
HOLLAND        CLOUDY    37  33  85 NW3       29.83R
GRAND RAPIDS   CLOUDY    38  33  82 W5        29.80F
KALAMAZOO      CLOUDY    38  33  82 CALM      29.82S
STURGIS*       CLOUDY    36  33  91 CALM      29.81S
THREE RIVERS*  CLOUDY    37  33  85 CALM      29.83R

$$
OHZ001>008-015>018-024>025-250300-
NORTHWEST OHIO

CITY           SKY/WX    TMP DP  RH WIND       PRES   REMARKS
DEFIANCE       CLOUDY    38  33  82 CALM      29.83F
FINDLAY        CLOUDY    40  34  79 CALM      29.82S
TOLEDO EXPRESS CLOUDY    39  34  82 N5        29.81F
TOLEDO METCALF CLOUDY    39  34  82 W9        29.84R
LIMA           CLOUDY    38  34  85 SW3       29.82F

$$
AND FOR LAKE MICHIGAN COASTAL AND OPEN LAKE BUOY OBSERVATIONS

STATION/POSITION TEMP    WIND        PRES    VSBY  WAVE
                 AIR SEA DIR/SP/G                  HT/PER
                 (F)     (DEG/KT/KT) (MB)    (MI)  (FT/S)
CALUMET HARBOR    34      80/ 10/ 13 1007.8F
BURNS HARBOR      35      60/  7/  8 1010.5R
SAINT JOSEPH      37     200/  1/  3 1010.8

$$
&&




USA.gov is the U.S. government's official web portal to all federal, state and local government web resources and services.